Weather in Vetreny

Russia / Magadan District     61°46′30″N   149°44′16″E
temp.,
°C
wind,
m/s
gust,
m/s
humid.,
%
clouds,
%
prec.,
mm/h
press.,
hPa
HPBL,
m
13 june, sun
sun1323:00+10ese11400 0.0 100910
02:00+9se22410 0.0 100911
05:00+9s22470 0.0 101016
08:00+14sw22514 0.0 1009429
11:00+18wsw22374 0.0 10081162
14:00+20w12305 0.0 10062443
17:00+22ssw132527 0.0 10042832
20:00+21ssw22306 0.0 1004346
14 june, mon
mon1423:00+15s33397 0.0 100513
02:00+13s44639 0.0 100630
05:00+12s34685 0.0 100757
08:00+17sw33545 0.0 1006399
11:00+20sw45363 0.0 10041893
14:00+22sw9828100 0.0 10022885
17:00+19wsw12113194 0.0 10022476
20:00+16sw7103867 0.0 10021814
15 june, tue
tue1523:00+10s56444 0.0 100364
02:00+8s445085 0.0 100355
05:00+8s455939 0.0 1002111
08:00+12sw34487 0.0 1001710
11:00+15wsw344576 0.0 10011695
14:00+17wsw123920 0.0 10001955
17:00+19ssw2233100 0.0 9992362
20:00+17ssw3342100 0.0 999586
16 june, wed
wed1623:00+13s4556100 0.0 1001116
02:00+11ssw3365100 0.0 100182
05:00+10ssw3370100 0.0 1002102
08:00+12sw2257100 0.0 1001527
11:00+16wsw224993 0.0 9991174
14:00+18wsw324037 0.0 9981910
17:00+18nw1138100 0.0 9971509
20:00+18e0142100 0.0 997983
17 june, thu
thu1723:00+13sse115899 0.0 99811
02:00+13s2259100 0.0 99816
05:00+12s226779 0.1 99976
08:00+14nne446430 0.3 1000718
11:00+5n81086100 1.4 1007674
14:00+3nne579391 2.8 1011477
17:00+5nne468264 2.9 1011698
20:00+6nne35734 0.0 1012572